�N����,�����b,���ԉ��x,���Ԏ��x,��󒲎�,����,�����W,���։��x,���֎��x
2004/10/1,0:00:00,25,66.5,23.4,,24.7,25.2,60.5
2004/10/1,0:15:00,25,66.4,23.4,,24.6,25.2,60.8
2004/10/1,0:30:00,24.9,66.3,23.4,,24.6,25.1,60.8
2004/10/1,0:45:00,24.9,65.8,23.4,,24.6,25.1,60.8
2004/10/1,1:00:00,24.8,65.9,23.4,,24.6,25.1,60.7
2004/10/1,1:15:00,24.8,65.8,23.4,,24.5,25.1,60.6
2004/10/1,1:30:00,24.8,65.6,23.4,,24.5,25.1,60.4
2004/10/1,1:45:00,24.7,65.7,23.4,,24.5,25,60.4
2004/10/1,2:00:00,24.7,65.9,23.4,,24.5,25,60.3
2004/10/1,2:15:00,24.6,65.8,23.4,,24.4,24.9,60.3
2004/10/1,2:30:00,24.6,65.9,23.3,,24.4,24.9,60.3
2004/10/1,2:45:00,24.6,65.6,23.3,,24.3,24.9,60.1
2004/10/1,3:00:00,24.5,65.7,23.3,,24.3,24.9,60.1
2004/10/1,3:15:00,24.5,65.8,23.3,,24.3,24.9,60.1
2004/10/1,3:30:00,24.5,65.8,23.3,,24.2,24.8,60
2004/10/1,3:45:00,24.4,65.8,23.2,,24.1,24.8,60
2004/10/1,4:00:00,24.4,65.8,23.2,,24.1,24.8,59.9
2004/10/1,4:15:00,24.3,65.8,23.2,,24,24.8,59.8
2004/10/1,4:30:00,24.3,65.7,23.2,,23.9,24.7,59.8
2004/10/1,4:45:00,24.2,65.6,23.2,,23.8,24.6,59.8
2004/10/1,5:00:00,24.2,65.6,23.1,,23.7,24.6,59.7
2004/10/1,5:15:00,24.1,65.6,23.1,,23.7,24.6,59.6
2004/10/1,5:30:00,24.1,65.6,23.1,,23.6,24.6,59.6
2004/10/1,5:45:00,24.1,65.7,23,,23.7,24.5,59.5
2004/10/1,6:00:00,24.1,66.6,23,,23.7,24.4,59.8
2004/10/1,6:15:00,24,66.5,23,,23.8,24.4,59.9
2004/10/1,6:30:00,24,66.3,23,,23.8,24.4,59.9
2004/10/1,6:45:00,24,66.4,23,,23.9,24.4,59.9
2004/10/1,7:00:00,24,66.6,22.9,,25.1,24.4,59.7
2004/10/1,7:15:00,24.1,65.8,22.9,,26.1,24.4,59.4
2004/10/1,7:30:00,24.1,65.7,22.9,,25.7,24.4,59.8
2004/10/1,7:45:00,24.3,65.8,22.9,,25.7,24.4,59.6
2004/10/1,8:00:00,24.6,65.5,22.9,,25.6,24.5,60
2004/10/1,8:15:00,24.7,65.5,22.9,,25.6,24.6,60.1
2004/10/1,8:30:00,24.9,65,22.9,,25.5,24.7,60.4
2004/10/1,8:45:00,25.1,64.8,22.9,,25.5,24.8,60.5
2004/10/1,9:00:00,25.5,63.9,23,,25.5,24.9,60.9
2004/10/1,9:15:00,25.9,62.8,23,,25.6,25.1,60.8
2004/10/1,9:30:00,26.1,62.4,23.2,,25.7,25.3,60.8
2004/10/1,9:45:00,26.3,62.2,23.6,,25.8,25.4,60.6
2004/10/1,10:00:00,26.5,61.8,24.2,,25.9,25.6,60.5
2004/10/1,10:15:00,26.7,61.4,24,,26.1,25.8,60.4
2004/10/1,10:30:00,26.8,60.9,23.8,,26.2,25.9,60.3
2004/10/1,10:45:00,26.7,61.3,23.8,,26.4,26.1,60.3
2004/10/1,11:00:00,26.7,61.2,23.9,,26.4,26.2,59.7
2004/10/1,11:15:00,26.8,60.9,23.9,,26.5,26.3,59.3
2004/10/1,11:30:00,26.9,60.7,24,,26.6,26.4,58.9
2004/10/1,11:45:00,26.9,60.1,24.1,,26.7,26.6,58.5
2004/10/1,12:00:00,27,59.6,24.1,,26.8,26.6,58.1
2004/10/1,12:15:00,26.7,56,24.2,,26.8,26.7,57.6
2004/10/1,12:30:00,26.3,55,24.2,,26.3,26.7,56.3
2004/10/1,12:45:00,26.2,54.5,24.1,,25.9,26.7,55.4
2004/10/1,13:00:00,26.2,55.8,24.1,,26.2,26.6,54.9
2004/10/1,13:15:00,26.2,55.7,24.1,,26.2,26.6,54.6
2004/10/1,13:30:00,26.1,54.1,24.2,,26.1,26.6,54.3
2004/10/1,13:45:00,26.3,55.9,24.2,,26.1,26.6,54.1
2004/10/1,14:00:00,26.3,55.6,24.2,,26.1,26.6,54.1
2004/10/1,14:15:00,26.4,56.7,24.4,,26.5,26.6,54.1
2004/10/1,14:30:00,26.5,57.1,24.4,,26.6,26.6,54.1
2004/10/1,14:45:00,26.5,58,24.4,,26.5,26.6,54.4
2004/10/1,15:00:00,26.6,58.5,24.5,,26.6,26.7,54.6
2004/10/1,15:15:00,26.7,59.3,24.5,,26.6,26.7,54.9
2004/10/1,15:30:00,26.7,59.8,24.6,,26.7,26.8,55.1
2004/10/1,15:45:00,26.7,60.1,24.6,,26.7,26.8,55.1
2004/10/1,16:00:00,26.7,60.3,24.7,,26.6,26.8,55.3
2004/10/1,16:15:00,26.7,60.5,24.7,,26.6,26.8,55.4
2004/10/1,16:30:00,26.7,60.8,24.7,,26.5,26.8,55.6
2004/10/1,16:45:00,26.7,60.9,24.7,,26.4,26.9,55.6
2004/10/1,17:00:00,26.7,61.1,24.7,,26.3,26.9,55.7
2004/10/1,17:15:00,26.7,61.3,24.7,,26.2,26.9,55.7
2004/10/1,17:30:00,26.7,61.3,24.7,,26.2,26.9,55.8
2004/10/1,17:45:00,26.7,61.3,24.7,,26.1,26.9,55.8
2004/10/1,18:00:00,26.6,61.2,24.7,,26.1,26.9,55.8
2004/10/1,18:15:00,26.6,61.2,24.7,,26,26.9,55.8
2004/10/1,18:30:00,26.6,61.3,24.7,,25.9,26.9,55.9
2004/10/1,18:45:00,26.5,61.3,24.7,,26,26.8,55.9
2004/10/1,19:00:00,26.5,61.4,24.7,,26,26.8,55.9
2004/10/1,19:15:00,26.5,61.4,24.7,,25.9,26.8,55.8
2004/10/1,19:30:00,26.4,61.3,24.7,,25.9,26.8,55.6
2004/10/1,19:45:00,26.4,61.2,24.6,,25.9,26.8,55.3
2004/10/1,20:00:00,26.3,61.1,24.6,,25.8,26.8,55.1
2004/10/1,20:15:00,26.3,61,24.6,,25.7,26.7,54.9
2004/10/1,20:30:00,26.2,60.9,24.6,,25.6,26.7,54.8
2004/10/1,20:45:00,26.2,60.9,24.6,,25.6,26.6,54.6
2004/10/1,21:00:00,26.1,60.1,24.5,,25.7,26.6,54
2004/10/1,21:15:00,26,59.2,24.5,,25.7,26.5,53.3
2004/10/1,21:30:00,26,59.1,24.5,,25.7,26.4,53.1
2004/10/1,21:45:00,26,58.3,24.5,,25.7,26.4,52.9
2004/10/1,22:00:00,26.1,58.3,24.4,,26.3,26.3,52.7
2004/10/1,22:15:00,26.1,58.1,24.4,,26.2,26.3,52.7
2004/10/1,22:30:00,26,58.1,24.4,,25.9,26.3,52.4
2004/10/1,22:45:00,25.9,57.9,24.3,,25.7,26.2,51.9
2004/10/1,23:00:00,25.8,57.7,24.3,,25.6,26.1,51.5
2004/10/1,23:15:00,25.8,58.3,24.3,22.6,25.6,26.1,52
2004/10/1,23:30:00,25.9,59.5,24.3,22.1,25.7,26.1,53.9
2004/10/1,23:45:00,25.9,62.8,24.3,22.1,25.7,26.1,55.7
2004/10/2,0:00:00,25.8,64,24.3,22.4,25.7,26.1,56.7
2004/10/2,0:15:00,25.8,63.4,24.3,22.4,25.6,26.1,56.9
2004/10/2,0:30:00,25.7,63.1,24.3,22.4,25.5,26.1,56.9
2004/10/2,0:45:00,25.6,63,24.3,22.5,25.4,26.1,56.9
2004/10/2,1:00:00,25.6,62.8,24.3,22.5,25.3,26.1,56.9
2004/10/2,1:15:00,25.5,62.9,24.3,22.5,25.2,26,56.9
2004/10/2,1:30:00,25.5,63,24.3,22.5,25.1,26,56.9
2004/10/2,1:45:00,25.5,63.1,24.2,22.6,25.2,26,56.8
2004/10/2,2:00:00,25.4,63,24.2,22.6,25.2,25.9,56.9
2004/10/2,2:15:00,25.4,63.1,24.2,22.6,25.2,25.9,56.8
2004/10/2,2:30:00,25.3,63.4,24.2,22.6,25.2,25.9,56.8
2004/10/2,2:45:00,25.3,63.2,24.2,22.6,25.2,25.9,56.8
2004/10/2,3:00:00,25.2,63.2,24.2,22.6,25.2,25.9,56.8
2004/10/2,3:15:00,25.2,62.9,24.1,22.7,25.2,25.8,56.7
2004/10/2,3:30:00,25.1,63,24.1,22.7,25.1,25.8,56.6
2004/10/2,3:45:00,25.1,63.3,24.1,22.7,25.1,25.8,56.6
2004/10/2,4:00:00,25,63,24,22.6,25.1,25.8,56.4
2004/10/2,4:15:00,25,63.5,24,22.7,25,25.6,56.4
2004/10/2,4:30:00,24.9,63,24,22.7,25,25.6,56.3
2004/10/2,4:45:00,24.9,63.1,23.9,22.7,24.9,25.6,56.3
2004/10/2,5:00:00,24.8,63.4,23.9,22.7,24.9,25.5,56.2
2004/10/2,5:15:00,24.8,63.3,23.9,22.7,24.9,25.5,56.1
2004/10/2,5:30:00,24.7,63.2,23.9,22.7,24.8,25.4,56.1
2004/10/2,5:45:00,24.3,56.9,23.7,22.8,24.7,25.4,55.9
2004/10/2,6:00:00,24.3,55.4,23.7,22.8,24.5,25.3,54.8
2004/10/2,6:15:00,24.3,55.4,23.6,22.8,24.4,25.3,53.6
2004/10/2,6:30:00,24.1,54.8,23.6,22.9,24.3,25.3,52.6
2004/10/2,6:45:00,23.9,54.3,23.6,22.8,24.1,25.2,51.9
2004/10/2,7:00:00,23.9,54.2,23.5,22.9,24,25.1,51.4
2004/10/2,7:15:00,23.7,54,23.5,22.9,23.8,25.1,50.8
2004/10/2,7:30:00,23.7,53.9,23.5,22.9,23.7,25.1,50.3
2004/10/2,7:45:00,23.6,54.8,23.4,22.9,23.6,25.1,50.4
2004/10/2,8:00:00,23.7,55,23.1,22.9,23.5,25,50.4
2004/10/2,8:15:00,23.7,55.3,23.1,22.9,23.5,25,50.7
2004/10/2,8:30:00,23.6,56.3,23,22.9,23.6,24.9,51.1
2004/10/2,8:45:00,23.7,57.5,23,22.9,25.2,24.9,51.8
2004/10/2,9:00:00,23.7,57.7,23,22.9,24.4,24.9,52.3
2004/10/2,9:15:00,24,57.6,23,22.9,24.2,24.9,51.9
2004/10/2,9:30:00,24.2,56.2,23.1,22.9,24.3,25,51.8
2004/10/2,9:45:00,24.3,55.3,23.3,22.9,24.5,25.1,51.8
2004/10/2,10:00:00,24.3,55.7,23.3,22.4,24.5,25.1,50.9
2004/10/2,10:15:00,24.3,56.5,23.2,22.4,24.5,25.1,51.3
2004/10/2,10:30:00,24.3,56.1,23.2,22.4,24.5,25.2,51.2
2004/10/2,10:45:00,24.4,57.6,23.2,21.9,24.5,25.2,50.8
2004/10/2,11:00:00,24.5,63.5,23.2,22,24.6,25.2,51.9
2004/10/2,11:15:00,24.5,63.1,23.3,22,24.6,25.2,53
2004/10/2,11:30:00,24.5,63,23.3,22.1,24.6,25.3,53.3
2004/10/2,11:45:00,24.5,63,23.3,22.1,24.6,25.3,54.3
2004/10/2,12:00:00,24.5,63,23.3,22.1,24.6,25.3,54.6
2004/10/2,12:15:00,24.5,62.9,23.4,22.1,24.5,25.3,54.3
2004/10/2,12:30:00,24.5,62.9,23.4,22.1,24.5,25.3,54.8
2004/10/2,12:45:00,24.5,62.7,23.3,22.2,24.5,25.3,55.1
2004/10/2,13:00:00,24.5,62.6,23.3,22.2,24.4,25.3,55.3
2004/10/2,13:15:00,24.5,62.7,23.3,22.2,24.4,25.3,55.4
2004/10/2,13:30:00,24.5,62.7,23.3,22.2,24.3,25.3,55.5
2004/10/2,13:45:00,24.5,62.7,23.3,22.2,24.2,25.2,55.6
2004/10/2,14:00:00,24.5,62.7,23.3,22.2,24.1,25.2,55.7
2004/10/2,14:15:00,24.4,62.9,23.3,22.3,24,25.2,55.7
2004/10/2,14:30:00,24.4,63,23.3,22.3,23.9,25.1,55.7
2004/10/2,14:45:00,24.4,63.1,23.3,22.3,23.8,25.1,55.7
2004/10/2,15:00:00,24.3,63.1,23.3,22.3,23.7,25.1,55.7
2004/10/2,15:15:00,24.3,63.2,23.2,22.3,23.6,25.1,55.6
2004/10/2,15:30:00,24.3,63.2,23.2,22.4,23.6,25.1,55.6
2004/10/2,15:45:00,24.2,63.4,23.2,22.4,23.5,25,55.5
2004/10/2,16:00:00,24.2,63.2,23.2,22.3,23.4,24.9,55.5
2004/10/2,16:15:00,24.3,63.4,23.2,22.4,23.4,24.9,55.6
2004/10/2,16:30:00,24.3,63.7,23.1,22.4,23.5,24.9,55.8
2004/10/2,16:45:00,24.2,63.5,23.1,22.4,23.5,24.9,55.9
2004/10/2,17:00:00,24.3,63.6,23.1,22.4,23.4,24.8,56
2004/10/2,17:15:00,24.3,63.4,23.1,22.4,23.4,24.8,56.1
2004/10/2,17:30:00,24.3,63.1,23.1,22.4,23.4,24.8,56.1
2004/10/2,17:45:00,24.3,63,23.1,22.4,23.4,24.8,56.1
2004/10/2,18:00:00,24.3,62.8,23,22.4,23.4,24.8,56.1
2004/10/2,18:15:00,24.4,62.7,23,22.4,23.4,24.7,56.2
2004/10/2,18:30:00,24.4,62.5,23,22.4,23.4,24.7,56.2
2004/10/2,18:45:00,24.4,62.5,22.9,22.4,23.6,24.6,56.3
2004/10/2,19:00:00,24.4,63.4,22.9,22.4,24.5,24.6,56.6
2004/10/2,19:15:00,24.4,63,22.8,22.4,26.1,24.6,56.5
2004/10/2,19:30:00,24.4,63.2,22.8,22.4,26.3,24.5,56.6
2004/10/2,19:45:00,24.4,62.9,22.8,22.4,25.9,24.5,56.8
2004/10/2,20:00:00,24.4,62.9,22.7,22.4,25.3,24.5,56.9
2004/10/2,20:15:00,24.4,62.8,22.7,22.4,24.8,24.4,56.9
2004/10/2,20:30:00,24.4,62.7,22.6,22.4,24.5,24.4,56.9
2004/10/2,20:45:00,24.3,62.7,22.6,22.4,24.3,24.4,56.9
2004/10/2,21:00:00,24.4,63.9,22.6,22.4,24.2,24.4,57.3
2004/10/2,21:15:00,24.4,64.1,22.5,22.4,24.1,24.4,57.9
2004/10/2,21:30:00,24.4,64.7,22.6,22.4,24,24.3,58.3
2004/10/2,21:45:00,24.2,64.1,22.5,21.2,24.1,24.3,58.5
2004/10/2,22:00:00,24.3,64.5,22.6,21.2,24.1,24.3,58.8
2004/10/2,22:15:00,24.3,64.4,22.7,21.2,24,24.4,58.9
2004/10/2,22:30:00,24.2,64.5,22.7,21.2,23.9,24.4,58.6
2004/10/2,22:45:00,24.2,63.9,22.7,21.2,23.7,24.3,58.6
2004/10/2,23:00:00,24.1,65.4,22.7,21.7,23.6,24.3,58.6
2004/10/2,23:15:00,24.1,66.5,22.7,21.7,23.6,24.3,59
2004/10/2,23:30:00,24.1,67.1,22.7,21.7,23.6,24.3,59.6
2004/10/2,23:45:00,24,66.5,22.7,21.7,23.5,24.3,59.9
2004/10/3,0:00:00,23.9,65.8,22.6,21.7,23.4,24.2,59.6
2004/10/3,0:15:00,23.9,65.5,22.6,21.7,23.3,24.1,59.3
2004/10/3,0:30:00,23.8,65.1,22.5,21.7,23.3,24.1,58.9
2004/10/3,0:45:00,23.8,65,22.5,21.7,23.2,24,58.8
2004/10/3,1:00:00,23.7,64.8,22.5,21.7,23.1,23.9,58.7
2004/10/3,1:15:00,23.7,64.7,22.5,21.7,23,23.9,58.5
2004/10/3,1:30:00,23.6,64.5,22.4,21.8,22.8,23.9,58.4
2004/10/3,1:45:00,23.6,64.4,22.4,21.8,22.7,23.8,58.3
2004/10/3,2:00:00,23.6,64.4,22.4,21.8,22.7,23.8,58.2
2004/10/3,2:15:00,23.5,64.3,22.3,21.8,22.7,23.8,58.1
2004/10/3,2:30:00,23.5,64.3,22.3,21.8,22.8,23.7,58.1
2004/10/3,2:45:00,23.5,64.2,22.3,21.8,22.8,23.6,58.1
2004/10/3,3:00:00,23.4,64.2,22.2,21.8,22.9,23.6,58.1
2004/10/3,3:15:00,23.4,64,22.2,21.8,22.8,23.6,57.9
2004/10/3,3:30:00,23.3,63.9,22.2,21.8,22.7,23.6,57.8
2004/10/3,3:45:00,23.3,63.9,22.1,21.8,22.7,23.5,57.8
2004/10/3,4:00:00,23.2,63.8,22.1,21.8,22.6,23.5,57.7
2004/10/3,4:15:00,23.2,63.9,22.1,21.8,22.6,23.4,57.7
2004/10/3,4:30:00,23.2,63.8,22.1,21.8,22.5,23.4,57.7
2004/10/3,4:45:00,23.1,63.8,22,21.8,22.6,23.4,57.7
2004/10/3,5:00:00,23.1,63.8,22,21.7,22.5,23.3,57.7
2004/10/3,5:15:00,23.1,63.9,22,21.7,22.5,23.3,57.7
2004/10/3,5:30:00,23,63.9,21.9,21.7,22.5,23.3,57.7
2004/10/3,5:45:00,23,64,21.9,21.7,22.5,23.3,57.7
2004/10/3,6:00:00,22.9,64,21.9,21.7,22.4,23.2,57.7
2004/10/3,6:15:00,22.9,64,21.9,21.7,22.3,23.2,57.8
2004/10/3,6:30:00,22.9,64,21.8,21.6,22.3,23.1,57.9
2004/10/3,6:45:00,22.9,64.6,21.8,21.5,22.3,23.1,57.8
2004/10/3,7:00:00,22.8,64.4,21.8,21.4,22.2,23.1,57.8
2004/10/3,7:15:00,22.8,64.3,21.8,21.6,22.3,23.1,57.6
2004/10/3,7:30:00,22.8,66.9,21.7,21.6,25.1,23.1,57.7
2004/10/3,7:45:00,22.7,66.3,21.7,21.6,23.5,23.1,58.6
2004/10/3,8:00:00,22.6,65.8,21.7,21.6,23.1,23,58.6
2004/10/3,8:15:00,22.8,66.8,21.5,21.6,23.5,23,58.4
2004/10/3,8:30:00,22.8,66.3,21.5,21.6,23.7,23,58.7
2004/10/3,8:45:00,22.8,66.4,21.4,21.6,23.7,23,58.8
2004/10/3,9:00:00,22.8,66.4,21.4,21.6,23.6,23,58.8
2004/10/3,9:15:00,22.8,66.3,21.4,21.6,23.4,23,58.8
2004/10/3,9:30:00,22.8,68.3,21.4,21.4,23.3,22.9,58.9
2004/10/3,9:45:00,22.8,68.4,21.4,21.4,23.2,22.9,59.4
2004/10/3,10:00:00,22.8,67.8,21.3,21.4,23,22.9,59.6
2004/10/3,10:15:00,22.7,67.4,21.3,21.4,22.9,22.9,59.6
2004/10/3,10:30:00,22.7,67.1,21.3,21.4,22.7,22.9,59.5
2004/10/3,10:45:00,22.7,66.8,21.3,21.5,22.6,22.9,59.4
2004/10/3,11:00:00,22.7,66.9,21.3,21.5,22.6,22.9,59.3
2004/10/3,11:15:00,22.7,66.7,21.3,21.5,22.6,22.9,59.3
2004/10/3,11:30:00,22.7,66.5,21.2,21.5,22.6,22.9,59.3
2004/10/3,11:45:00,22.8,66.1,21.2,21.4,22.5,22.9,59.4
2004/10/3,12:00:00,22.8,65.8,21.2,21.4,22.3,22.9,59.3
2004/10/3,12:15:00,22.7,63.5,21.2,21.4,22.3,22.9,57.3
2004/10/3,12:30:00,22.3,62.1,21.2,21.4,22.2,22.5,55.7
2004/10/3,12:45:00,22,62.3,21.2,21.4,22.1,22.1,55.5
2004/10/3,13:00:00,21.9,63.1,21.1,21.4,21.9,21.9,56.1
2004/10/3,13:15:00,21.8,63.8,21.1,21.4,21.9,21.7,57.1
2004/10/3,13:30:00,22.2,62.6,21.1,21.4,21.9,21.8,58.1
2004/10/3,13:45:00,22.2,64.7,21.1,21.4,23.4,21.9,58.4
2004/10/3,14:00:00,22.3,64.7,21.1,21.4,23.3,21.9,58.4
2004/10/3,14:15:00,22.3,65.7,21.1,21.4,23.3,22,58.8
2004/10/3,14:30:00,22.3,67.2,21.1,21.4,23.2,22,59.3
2004/10/3,14:45:00,22.3,67.8,21.1,21.4,23.1,22.1,59.9
2004/10/3,15:00:00,22.4,67.1,21.1,21.4,22.9,22.1,60.3
2004/10/3,15:15:00,22.5,66.7,21.1,21.4,22.8,22.1,60.5
2004/10/3,15:30:00,22.4,66.2,21.1,21.2,22.7,22.1,60.6
2004/10/3,15:45:00,22.4,65.9,21.1,21.2,22.6,22.1,60.5
2004/10/3,16:00:00,22.4,65.6,21,21.2,22.5,22.1,60.4
2004/10/3,16:15:00,22.4,65.5,21,21.2,22.5,22.1,60.3
2004/10/3,16:30:00,22.4,65.4,21,20.7,22.4,22.1,60.3
2004/10/3,16:45:00,22.4,65.4,21,21.1,22.4,22.1,60.3
2004/10/3,17:00:00,22.3,65.6,21,21.1,22.4,22.1,60.3
2004/10/3,17:15:00,22.2,66,21,21.1,22.3,22.2,60.3
2004/10/3,17:30:00,22.3,65.6,21,21.2,22.3,22.2,60.3
2004/10/3,17:45:00,22.3,65.4,21,21.2,22.2,22.2,60.1
2004/10/3,18:00:00,22.3,65.5,20.9,21.2,22.2,22.2,60
2004/10/3,18:15:00,22.3,65.1,20.9,21.2,22.2,22.2,59.9
2004/10/3,18:30:00,22.4,66.9,20.9,21.2,23.3,22.3,60
2004/10/3,18:45:00,22.3,66.2,20.9,21.2,23.9,22.3,59.7
2004/10/3,19:00:00,22.4,66.4,20.9,21.2,23.7,22.3,59.4
2004/10/3,19:15:00,22.4,66.3,20.8,21.2,23.5,22.3,59.8
2004/10/3,19:30:00,22.4,66.2,20.8,21.2,23.3,22.3,60.1
2004/10/3,19:45:00,22.3,66.2,20.8,21.2,23.1,22.3,60.1
2004/10/3,20:00:00,22.3,66.4,20.8,21.2,22.9,22.3,60.1
2004/10/3,20:15:00,22.2,66.4,20.7,21.2,22.7,22.3,60.1
2004/10/3,20:30:00,22.3,67.9,20.7,21.2,22.6,22.3,60.1
2004/10/3,20:45:00,22.3,67.8,20.7,21.2,22.6,22.3,60.6
2004/10/3,21:00:00,22.3,67.8,20.7,21.2,22.6,22.3,60.9
2004/10/3,21:15:00,22.3,67.8,20.8,21.2,23.7,22.3,61.2
2004/10/3,21:30:00,22.3,66.9,20.8,21.2,23.7,22.3,61.2
2004/10/3,21:45:00,22.3,66.7,20.8,21.2,23.6,22.3,61.1
2004/10/3,22:00:00,22.2,66.6,20.8,21.2,23.3,22.3,60.8
2004/10/3,22:15:00,22.3,66.4,20.8,20.9,23,22.3,60.6
2004/10/3,22:30:00,22.3,66.3,20.8,20.9,22.8,22.3,60.6
2004/10/3,22:45:00,22.4,66.4,20.7,20.9,22.8,22.3,60.4
2004/10/3,23:00:00,22.5,69.3,20.7,20.9,22.6,22.3,60.5
2004/10/3,23:15:00,22.3,67.5,20.7,20.9,22.6,22.3,60.6
2004/10/3,23:30:00,22.2,67.1,20.8,20.9,22.4,22.3,61.1
2004/10/3,23:45:00,22.2,66.8,20.8,20.9,22.3,22.3,61.3
2004/10/4,0:00:00,22.1,66.6,20.8,20.9,22.2,22.3,61.3
2004/10/4,0:15:00,22.1,66.5,20.8,20.9,22.2,22.3,61.2
2004/10/4,0:30:00,22,66.5,20.8,20.9,22.1,22.2,61.2
2004/10/4,0:45:00,22,66.4,20.8,20.9,22,22.2,61.1
2004/10/4,1:00:00,21.9,66.4,20.8,21,21.9,22.1,61.1
2004/10/4,1:15:00,21.9,66.4,20.8,21,21.8,22.1,61.1
2004/10/4,1:30:00,21.8,66.4,20.8,21,21.8,22.1,61
2004/10/4,1:45:00,21.8,66.5,20.8,21,21.7,22.1,61
2004/10/4,2:00:00,21.8,66.6,20.8,21,21.7,22.1,60.9
2004/10/4,2:15:00,21.8,66.6,20.8,21,21.7,22.1,60.9
2004/10/4,2:30:00,21.7,66.5,20.8,21,21.6,22,60.9
2004/10/4,2:45:00,21.7,66.7,20.8,21,21.7,22,60.9
2004/10/4,3:00:00,21.7,66.7,20.7,21,21.6,22,60.9
2004/10/4,3:15:00,21.6,66.5,20.7,21,21.6,21.9,60.8
2004/10/4,3:30:00,21.6,66.6,20.7,21,21.5,21.9,60.8
2004/10/4,3:45:00,21.6,66.6,20.7,21,21.4,21.9,60.8
2004/10/4,4:00:00,21.5,66.6,20.7,21,21.4,21.9,60.7
2004/10/4,4:15:00,21.5,66.6,20.7,21,21.3,21.9,60.7
2004/10/4,4:30:00,21.5,66.6,20.7,21,21.2,21.8,60.6
2004/10/4,4:45:00,21.4,66.6,20.6,21,21.1,21.8,60.6
2004/10/4,5:00:00,21.4,66.6,20.6,21,21.1,21.8,60.6
2004/10/4,5:15:00,21.4,66.7,20.6,21,21.1,21.8,60.5
2004/10/4,5:30:00,21.4,66.6,20.6,21,21.1,21.8,60.5
2004/10/4,5:45:00,21.3,66.7,20.5,21,21.1,21.7,60.5
2004/10/4,6:00:00,21.4,68.2,20.5,20.8,21.1,21.7,61.1
2004/10/4,6:15:00,21.3,67.7,20.5,21.4,21.2,21.7,61.1
2004/10/4,6:30:00,21.3,67.8,20.5,21.4,21.1,21.7,61
2004/10/4,6:45:00,21.5,67.5,20.5,21.4,21.2,21.6,61
2004/10/4,7:00:00,21.5,66.6,20.4,21.4,23.1,21.6,60.4
2004/10/4,7:15:00,21.5,66.8,20.4,21.4,24.5,21.6,60.1
2004/10/4,7:30:00,21.6,66.6,20.3,21.4,24.5,21.6,60.1
2004/10/4,7:45:00,21.8,69.2,20.3,21.4,24.9,21.6,60.4
2004/10/4,8:00:00,21.8,68.1,20.3,21.2,24.5,21.6,60.7
2004/10/4,8:15:00,21.7,68.4,20.3,21.1,24,21.6,61.1
2004/10/4,8:30:00,21.7,69,20.3,21.1,23.7,21.6,61.3
2004/10/4,8:45:00,21.7,69.5,20.2,21.1,23.3,21.6,61.5
2004/10/4,9:00:00,21.6,69.6,20.2,21.1,23,21.6,61.8
2004/10/4,9:15:00,21.7,70.7,20.2,21.1,22.8,21.6,61.9
2004/10/4,9:30:00,21.6,69.7,20.2,21,22.5,21.6,62.3
2004/10/4,9:45:00,21.6,69.2,20.2,21,22.3,21.6,62.3
2004/10/4,10:00:00,21.6,69.2,20.2,21,22.2,21.7,62.1
2004/10/4,10:15:00,21.6,68.7,20.2,21,22.1,21.7,62.1
2004/10/4,10:30:00,21.7,68.3,20.3,21,22,21.7,61.9
2004/10/4,10:45:00,21.7,68.1,20.3,21,21.9,21.7,61.3
2004/10/4,11:00:00,21.8,67.7,20.3,21,21.9,21.8,60.4
2004/10/4,11:15:00,21.8,67.6,20.3,21,21.9,21.8,60
2004/10/4,11:30:00,21.8,67.4,20.4,21,21.9,21.8,59.7
2004/10/4,11:45:00,21.9,67.2,20.4,21,22,21.8,59.4
2004/10/4,12:00:00,21.9,67,20.4,21,22,21.8,59.3
2004/10/4,12:15:00,22,67.2,20.4,21,22.2,21.9,59.3
2004/10/4,12:30:00,22.2,72.1,20.5,21,23.6,21.9,60.1
2004/10/4,12:45:00,22.3,72.6,20.4,21,23.9,22,60.8
2004/10/4,13:00:00,22.4,71.3,20.5,21,23.8,22.1,60.9
2004/10/4,13:15:00,22.5,71.4,20.5,21,23.8,22.1,61
2004/10/4,13:30:00,22.6,70.8,20.5,21,23.7,22.1,61.2
2004/10/4,13:45:00,22.6,71,20.5,21,23.7,22.2,61.3
2004/10/4,14:00:00,22.6,70.9,20.5,21.2,23.6,22.3,61.4
2004/10/4,14:15:00,22.6,70.1,20.5,21.1,23.5,22.3,61.4
2004/10/4,14:30:00,22.6,69.7,20.6,21.1,23.5,22.3,61.2
2004/10/4,14:45:00,22.6,69.3,20.6,21.1,23.4,22.3,61
2004/10/4,15:00:00,22.6,69.1,20.6,21.1,23.3,22.4,60.8
2004/10/4,15:15:00,22.6,68.9,20.6,21.1,23.2,22.4,60.7
2004/10/4,15:30:00,22.6,68.6,20.6,21.2,23.1,22.4,60.6
2004/10/4,15:45:00,22.6,68.5,20.6,21.2,23.1,22.4,60.5
2004/10/4,16:00:00,22.6,68.3,20.6,21.2,23,22.4,60.4
2004/10/4,16:15:00,22.6,68.1,20.6,21.2,22.9,22.4,60.3
2004/10/4,16:30:00,22.5,67.9,20.6,21.2,22.9,22.4,60.2
2004/10/4,16:45:00,22.5,67.8,20.6,21.2,22.9,22.4,60.1
2004/10/4,17:00:00,22.5,67.7,20.6,21.2,22.8,22.4,60.1
2004/10/4,17:15:00,22.5,67.6,20.6,21.2,22.8,22.4,59.9
2004/10/4,17:30:00,22.5,67.5,20.6,21.2,22.8,22.4,59.9
2004/10/4,17:45:00,22.5,67.5,20.6,21.2,22.7,22.4,59.8
2004/10/4,18:00:00,22.5,67.5,20.6,21.2,22.7,22.4,59.8
2004/10/4,18:15:00,22.5,67.4,20.6,21.2,22.6,22.4,59.7
2004/10/4,18:30:00,22.5,67,20.7,21.3,22.7,22.4,59.6
2004/10/4,18:45:00,22.6,67.8,20.7,21.3,26.4,22.4,59.8
2004/10/4,19:00:00,22.7,67.5,20.6,21.3,25,22.4,59.9
2004/10/4,19:15:00,22.7,66.9,20.6,21.3,23.9,22.4,59.8
2004/10/4,19:30:00,22.8,66.4,20.6,21.3,23.8,22.4,59.8
2004/10/4,19:45:00,22.8,65.8,20.6,21.3,23.9,22.4,59.8
2004/10/4,20:00:00,22.8,65.5,20.6,21.3,23.9,22.4,59.7
2004/10/4,20:15:00,22.9,65.9,20.6,20.8,24.1,22.4,59.7
2004/10/4,20:30:00,22.9,65.9,20.6,20.8,24.1,22.4,59.8
2004/10/4,20:45:00,23,65.9,20.6,20.8,24,22.4,59.8
2004/10/4,21:00:00,23,67.5,20.7,20.5,23.9,22.4,60.2
2004/10/4,21:15:00,23.1,67.8,20.7,20.4,23.8,22.5,60.3
2004/10/4,21:30:00,23.2,68.3,20.7,20.5,23.7,22.5,60.6
2004/10/4,21:45:00,23.2,68.3,20.7,20.5,23.7,22.5,60.9
2004/10/4,22:00:00,23.2,68.4,20.7,20.5,23.7,22.6,61
2004/10/4,22:15:00,23.1,68.3,20.7,20.5,23.8,22.6,61.1
2004/10/4,22:30:00,23.2,69.7,20.7,20.5,23.7,22.6,61.3
2004/10/4,22:45:00,23.2,72.8,20.7,20.6,23.6,22.7,61.8
2004/10/4,23:00:00,23.2,72.1,20.7,20.6,23.5,22.7,62.2
2004/10/4,23:15:00,23.1,71.3,20.8,20.6,23.5,22.7,62.3
2004/10/4,23:30:00,23,70.1,20.9,20.6,23.3,22.8,62.2
2004/10/4,23:45:00,23,69.4,21,20.6,23.2,22.8,61.7
2004/10/5,0:00:00,23,69,21,20.6,23.2,22.8,61.5
2004/10/5,0:15:00,22.9,68.6,21,20.6,23.1,22.8,61.4
2004/10/5,0:30:00,22.9,68.1,21.1,20.6,23,22.8,61.3
2004/10/5,0:45:00,22.9,68,21.1,20.6,23,22.8,61.1
2004/10/5,1:00:00,22.8,67.7,21.1,20.7,22.9,22.8,61
2004/10/5,1:15:00,22.8,67.7,21.1,20.7,22.9,22.8,60.9
2004/10/5,1:30:00,22.8,67.8,21.1,20.7,22.8,22.8,60.8
2004/10/5,1:45:00,22.8,67.9,21.1,20.7,22.8,22.8,60.8
2004/10/5,2:00:00,22.8,67.9,21.1,20.7,22.9,22.8,60.7
2004/10/5,2:15:00,22.8,67.9,21.2,20.7,22.9,22.8,60.6
2004/10/5,2:30:00,22.8,67.9,21.2,20.8,22.9,22.7,60.6
2004/10/5,2:45:00,22.8,67.9,21.2,20.8,22.9,22.7,60.6
2004/10/5,3:00:00,22.7,67.7,21.2,20.8,22.9,22.7,60.5
2004/10/5,3:15:00,22.7,67.6,21.2,20.8,22.9,22.7,60.4
2004/10/5,3:30:00,22.7,67.3,21.2,20.8,22.8,22.7,60.4
2004/10/5,3:45:00,22.6,67.2,21.2,20.8,22.7,22.7,60.3
2004/10/5,4:00:00,22.6,67.3,21.2,20.9,22.6,22.7,60.3
2004/10/5,4:15:00,22.6,67.5,21.2,20.9,22.6,22.7,60.2
2004/10/5,4:30:00,22.6,67.5,21.2,20.9,22.5,22.7,60.1
2004/10/5,4:45:00,22.6,67.2,21.2,20.9,22.5,22.7,60.1
2004/10/5,5:00:00,22.5,67.3,21.2,20.9,22.4,22.7,60.1
2004/10/5,5:15:00,22.5,67.2,21.2,20.9,22.4,22.6,60.1
2004/10/5,5:30:00,22.5,67.3,21.2,20.9,22.4,22.6,60.1
2004/10/5,5:45:00,22.5,67.2,21.1,20.9,22.4,22.6,60.1
2004/10/5,6:00:00,22.5,68.1,21.1,21,22.4,22.6,60.2
2004/10/5,6:15:00,22.4,67.8,21.1,21,22.5,22.6,60.1
2004/10/5,6:30:00,22.4,67.9,21.1,21,22.5,22.6,60.1
2004/10/5,6:45:00,22.5,68,21.1,20.9,22.5,22.5,60.2
2004/10/5,7:00:00,22.5,68.6,21.1,21,23.3,22.5,60.1
2004/10/5,7:15:00,22.6,68.8,21.1,21,25.6,22.5,60.3
2004/10/5,7:30:00,22.6,68.1,21.1,21,25.2,22.5,60.4
2004/10/5,7:45:00,22.6,67.8,21.1,21,24.5,22.5,60.3
2004/10/5,8:00:00,22.6,68.1,21.1,21,24.3,22.5,60.9
2004/10/5,8:15:00,22.6,68.1,21.1,21,24.1,22.5,61.3
2004/10/5,8:30:00,22.5,68.4,21,21,23.9,22.5,61.6
2004/10/5,8:45:00,22.5,68.6,21,21,23.7,22.4,61.8
2004/10/5,9:00:00,22.5,69.5,21,21.1,23.5,22.4,61.9
2004/10/5,9:15:00,22.5,70.1,20.9,21.1,23.4,22.4,62.4
2004/10/5,9:30:00,22.5,71,20.9,21.1,23.3,22.4,62.4
2004/10/5,9:45:00,22.4,70.6,20.9,21.1,23.2,22.4,62.7
2004/10/5,10:00:00,22.4,70.2,20.9,21.1,23.1,22.4,62.9
2004/10/5,10:15:00,22.4,70.2,20.9,20.7,22.9,22.4,63.1
2004/10/5,10:30:00,22.4,70.1,20.9,20.7,22.9,22.4,63.2
2004/10/5,10:45:00,22.4,69.9,20.9,20.7,22.8,22.4,63.3
2004/10/5,11:00:00,22.3,69.8,20.9,20.7,22.7,22.4,63.3
2004/10/5,11:15:00,22.3,69.8,20.9,20.8,22.6,22.4,63.3
2004/10/5,11:30:00,22.3,69.7,20.9,20.8,22.5,22.4,63.3
2004/10/5,11:45:00,22.3,69.5,20.9,20.8,22.6,22.4,63.2
2004/10/5,12:00:00,22.3,71.2,20.9,20.8,23.6,22.4,63.1
2004/10/5,12:15:00,22.3,71.6,20.9,20.8,23.8,22.4,63
2004/10/5,12:30:00,22.3,71.7,20.9,20.8,23.9,22.4,62.7
2004/10/5,12:45:00,22.3,71.6,20.9,20.8,23.8,22.4,62.4
2004/10/5,13:00:00,22.3,71.8,21,20.8,23.7,22.4,61.8
2004/10/5,13:15:00,22.4,72,21,20.8,23.6,22.4,61.6
2004/10/5,13:30:00,22.4,71.8,21,20.8,23.5,22.4,61.4
2004/10/5,13:45:00,22.4,71.6,21,20.8,23.4,22.4,61.4
2004/10/5,14:00:00,22.5,73.9,21,20.8,23.3,22.4,61.8
2004/10/5,14:15:00,22.6,73.6,21,20.8,23.3,22.4,61.9
2004/10/5,14:30:00,22.6,72.8,21.1,20.8,23.3,22.4,61.9
2004/10/5,14:45:00,22.6,72.5,21,20.7,23.2,22.4,61.8
2004/10/5,15:00:00,22.5,72.6,21,20.7,23.1,22.4,61.6
2004/10/5,15:15:00,22.5,72.4,21,20.7,23,22.4,61.4
2004/10/5,15:30:00,22.5,72.2,20.9,20.7,23,22.4,61.4
2004/10/5,15:45:00,22.5,72,20.9,20.8,22.9,22.4,61.3
2004/10/5,16:00:00,22.5,71.8,20.9,20.8,22.8,22.4,61.3
2004/10/5,16:15:00,22.5,71.7,20.9,20.8,22.8,22.4,61.3
2004/10/5,16:30:00,22.5,71.5,20.8,20.8,22.7,22.4,61.3
2004/10/5,16:45:00,22.5,71.3,20.8,20.8,22.7,22.4,61.5
2004/10/5,17:00:00,22.4,71.2,20.8,20.8,22.6,22.4,61.8